West Palm Beach, FL

2:38 PM EST on November 20, 2019 (GMT -0500)
Palm Beach International

Weather History for KPBI - September, 2019

Change the Weather History Date:

Sunday, September 29, 2019

  Actual Average Record
Temperature  
Mean Temperature 83 °F 81 °F  
Max Temperature 88 °F 87 °F 94 °F (1980)
Min Temperature 78 °F 75 °F 62 °F (1919)
Degree Days  
Heating Degree Days 0 0  
Month to date heating degree days 0 0  
Since 1 July heating degree days 0 0  
Cooling Degree Days 18 16  
Month to date cooling degree days 525 485  
Year to date cooling degree days 3691 3191  
Growing Degree Days 33 (Base 50)    
Moisture  
Dew Point 69 °F    
Average Humidity 64    
Maximum Humidity 74    
Minimum Humidity 53    
Precipitation  
Precipitation T in 0.25 in 3.12 in (1936)
Month to date precipitation 1.36 8.10  
Year to date precipitation 45.32 48.82  
Snow  
Snow 0.00 in - - ()
Month to date snowfall 0.0  
Since 1 July snowfall 0.0  
Since 1 September snowfall 0.0  
Snow Depth 0.00 in    
Sea Level Pressure  
Sea Level Pressure 30.05 in    
Wind  
Wind Speed 15 mph (ENE)    
Max Wind Speed 23 mph    
Max Gust Speed 34 mph    
Visibility 10 miles    
Events Rain    
T = Trace of Precipitation, MM = Missing Value Source: NWS Daily Summary

Daily Weather History Graph

Daily Weather History Graph

Search for Another Location

Airport or City:

Astronomy

Sep. 29, 2019 Rise Set
Actual Time 7:11 AM EDT 7:09 PM EDT
Civil Twilight 6:48 AM EDT 7:32 PM EDT
Nautical Twilight 6:21 AM EDT 7:59 PM EDT
Astronomical Twilight 5:54 AM EDT 8:26 PM EDT
Moon 8:00 AM EDT (9/29) 8:12 PM EDT (9/29)
Length of Visible Light 12h 43m
Length of Day
11h 57m
New Moon, 1% of the Moon is Illuminated
Sep 29
New Moon
Oct 5
First Quarter
Oct 13
Full
Oct 21
Last Quarter
Oct 27
New

Hourly Weather History & Observations

Time (EDT) Temp. Heat Index Dew Point Humidity Pressure Visibility Wind Dir Wind Speed Gust Speed Precip Events Conditions
12:53 AM 81.0 °F 84.9 °F 71.1 °F 72% 30.06 in 10.0 mi ENE 13.8 mph - N/A   Scattered Clouds
1:53 AM 81.0 °F 84.9 °F 71.1 °F 72% 30.05 in 10.0 mi ENE 11.5 mph - N/A   Scattered Clouds
2:53 AM 81.0 °F 84.4 °F 70.0 °F 69% 30.03 in 10.0 mi ENE 12.7 mph - N/A   Scattered Clouds
3:53 AM 81.0 °F 84.9 °F 71.1 °F 72% 30.02 in 10.0 mi East 9.2 mph - N/A   Scattered Clouds
4:53 AM 80.1 °F 83.6 °F 71.1 °F 74% 30.01 in 10.0 mi East 10.4 mph - N/A   Scattered Clouds
5:53 AM 79.0 °F - 72.0 °F 79% 30.03 in 9.0 mi ENE 8.1 mph - 0.00 in Rain Light Rain
6:53 AM 81.0 °F 84.9 °F 71.1 °F 72% 30.05 in 10.0 mi ENE 11.5 mph - 0.00 in   Mostly Cloudy
7:53 AM 81.0 °F 84.1 °F 69.1 °F 67% 30.06 in 10.0 mi East 12.7 mph - N/A   Mostly Cloudy
8:53 AM 82.0 °F 85.5 °F 69.1 °F 65% 30.08 in 10.0 mi ENE 11.5 mph - N/A   Scattered Clouds
9:53 AM 84.0 °F 87.8 °F 69.1 °F 61% 30.09 in 10.0 mi NE 12.7 mph - N/A   Scattered Clouds
10:53 AM 84.0 °F 88.4 °F 70.0 °F 63% 30.10 in 10.0 mi NE 15.0 mph - N/A   Scattered Clouds
11:53 AM 87.1 °F 92.8 °F 71.1 °F 59% 30.09 in 10.0 mi NE 16.1 mph - N/A   Scattered Clouds
12:53 PM 87.1 °F 92.8 °F 71.1 °F 59% 30.07 in 10.0 mi NE 18.4 mph 24.2 mph N/A   Mostly Cloudy
1:53 PM 86.0 °F 89.4 °F 68.0 °F 55% 30.06 in 10.0 mi ENE 21.9 mph 28.8 mph N/A   Scattered Clouds
2:53 PM 87.1 °F 90.6 °F 68.0 °F 53% 30.04 in 10.0 mi NE 19.6 mph 23.0 mph N/A   Scattered Clouds
3:53 PM 86.0 °F 89.4 °F 68.0 °F 55% 30.03 in 10.0 mi ENE 18.4 mph 27.6 mph N/A   Mostly Cloudy
4:53 PM 84.9 °F 87.6 °F 66.9 °F 55% 30.02 in 10.0 mi NE 17.3 mph 25.3 mph N/A   Scattered Clouds
5:53 PM 82.9 °F 85.0 °F 66.0 °F 56% 30.02 in 10.0 mi NE 18.4 mph - N/A   Scattered Clouds
6:53 PM 82.0 °F 84.5 °F 66.9 °F 60% 30.02 in 10.0 mi ENE 15.0 mph - N/A   Mostly Cloudy
7:53 PM 82.0 °F 84.9 °F 68.0 °F 62% 30.02 in 10.0 mi NE 16.1 mph 26.5 mph N/A   Mostly Cloudy
8:53 PM 82.0 °F 84.5 °F 66.9 °F 60% 30.04 in 10.0 mi ENE 15.0 mph - N/A   Scattered Clouds
9:53 PM 81.0 °F 83.8 °F 68.0 °F 65% 30.05 in 10.0 mi ENE 13.8 mph 25.3 mph N/A   Scattered Clouds
10:53 PM 82.0 °F 85.5 °F 69.1 °F 65% 30.06 in 10.0 mi ENE 15.0 mph - N/A   Scattered Clouds
11:53 PM 82.0 °F 85.5 °F 69.1 °F 65% 30.05 in 10.0 mi ENE 17.3 mph 28.8 mph N/A   Mostly Cloudy